Location: ???????
(55.3754°N, 39.3545°E)
Time: 20:57:56
(UTC+00:00)

Cosmos 1862 - Pass Details

Date: 14 April 2026
Orbit: 465 x 478 km, 82.5° (Epoch: 16 May)

Event Time Altitude Azimuth Distance (km) Brightness Sun altitude
Rises 20:20:58 0° 342° (NNW) 2,551 8.2 -23.7°
Reaches altitude 10° 20:23:10 10° 334° (NNW) 1,665 6.8 -23.8°
Enters shadow 20:26:07 35° 284° (WNW) 788 4.3 -23.9°
